KO6TH-15 Weather Reports


time (UTC)temp
C
wind
direction
speed
KPH
gust
KPH
rain 1hr
cm
rain 24hr
cm
rain mn
cm
humidity
%
barometer
mb
20260903023245 20 0 4.8 0.0 0.00 1.37 1.37 61
20260903022215 21 0 3.2 0.0 0.00 1.37 1.37 60
20260903021145 21 0 4.8 0.0 0.00 1.37 1.37 58
20260903020115 21 0 3.2 0.0 0.00 1.37 1.37 57
20260903015115 22 0 1.6 0.0 0.00 1.37 1.37 56
20260903014115 22 0 3.2 0.0 0.00 1.37 1.37 56
20260903013045 22 0 3.2 0.0 0.00 1.37 1.37 56
20260903012015 22 0 11.3 0.0 0.00 1.37 1.37 56
20260903010945 22 0 8.0 0.0 0.00 1.37 1.37 56
20260903005945 22 0 9.7 0.0 0.00 1.37 1.37 56
20260903004945 23 0 11.3 0.0 0.00 1.37 1.37 55
20260903003915 23 0 4.8 0.0 0.00 1.37 1.37 55
20260903002915 23 0 9.7 0.0 0.00 1.37 1.37 54
20260903001845 23 0 4.8 0.0 0.00 1.37 1.37 54
20260903000845 23 0 4.8 0.0 0.00 1.37 1.37 53
20260902235815 26 0 12.9 0.0 0.00 1.37 1.37 48
20260902234745 26 0 9.7 0.0 0.00 1.37 1.37 48
20260902233715 25 0 8.0 0.0 0.00 1.37 1.37 49
20260902232715 26 0 6.4 0.0 0.00 1.37 1.37 47
20260902231645 26 0 8.0 0.0 0.00 1.37 1.37 47
20260902230645 26 0 3.2 0.0 0.00 1.37 1.37 48
20260902225645 26 0 8.0 0.0 0.00 1.37 1.37 48
20260902224615 25 0 3.2 0.0 0.00 1.37 1.37 50
20260902223545 24 0 12.9 0.0 0.00 1.37 1.37 53
20260902222515 23 0 6.4 0.0 0.00 1.37 1.37 56
20260902221515 23 0 4.8 0.0 0.00 1.37 1.37 57
20260902220515 23 0 3.2 0.0 0.00 1.37 1.37 57
20260902215515 23 0 6.4 0.0 0.00 1.37 1.37 57
20260902214445 23 0 9.7 0.0 0.00 1.37 1.37 58
20260902213445 22 0 6.4 0.0 0.00 1.37 1.37 59
20260902212445 22 0 4.8 0.0 0.00 1.37 1.37 60
20260902211445 22 0 6.4 0.0 0.00 1.37 1.37 59
20260902210445 22 0 6.4 0.0 0.00 1.37 1.37 59
20260902205415 22 0 8.0 0.0 0.00 1.37 1.37 59
20260902204345 22 0 6.4 0.0 0.00 1.37 1.37 59
20260902203315 23 0 4.8 0.0 0.00 1.37 1.37 59
20260902202315 22 0 3.2 0.0 0.00 1.37 1.37 61
20260902201315 21 0 6.4 0.0 0.00 1.37 1.37 62
20260902200315 22 0 6.4 0.0 0.00 1.37 1.37 61
20260902195245 22 0 11.3 0.0 0.00 1.37 1.37 61
20260902194245 22 0 4.8 0.0 0.00 1.37 1.37 60
20260902193245 22 0 3.2 0.0 0.00 1.37 1.37 59
20260902192245 22 0 4.8 0.0 0.00 1.37 1.37 60
20260902191245 22 0 8.0 0.0 0.00 1.37 1.37 61
20260902190245 21 0 0.0 0.0 0.00 1.37 1.37 62
20260902185215 21 0 3.2 0.0 0.00 1.37 1.37 63
20260902184145 21 0 4.8 0.0 0.00 1.37 1.37 62
20260902183115 21 0 3.2 0.0 0.00 1.37 1.37 62
20260902182045 21 0 3.2 0.0 0.00 1.37 1.37 62
20260902181045 21 0 3.2 0.0 0.00 1.37 1.37 61
20260902180015 21 0 6.4 0.0 0.00 1.37 1.37 61
20260902174945 21 0 1.6 0.0 0.00 1.37 1.37 63
20260902173945 21 0 8.0 0.0 0.00 1.37 1.37 64
20260902172915 20 0 6.4 0.0 0.00 1.37 1.37 66
20260902171915 20 0 9.7 0.0 0.00 1.37 1.37 66
20260902170845 20 0 3.2 0.0 0.00 1.37 1.37 66
20260902165815 18 0 6.4 0.0 0.00 1.37 1.37 66
20260902164815 18 0 6.4 0.0 0.00 1.37 1.37 66
20260902163815 18 0 4.8 0.0 0.00 1.37 1.37 67
20260902162745 18 0 6.4 0.0 0.00 1.37 1.37 68
20260902161715 18 0 1.6 0.0 0.00 1.37 1.37 68
20260902160645 17 0 3.2 0.0 0.00 1.37 1.37 68
20260902155645 17 0 4.8 0.0 0.00 1.37 1.37 68
20260902154615 16 0 6.4 0.0 0.00 1.37 1.37 72
20260902153545 15 0 3.2 0.0 0.00 1.37 1.37 76
20260902152515 14 0 3.2 0.0 0.00 1.37 1.37 78
20260902151445 14 0 1.6 0.0 0.00 1.37 1.37 79
20260902150445 13 0 1.6 0.0 0.00 1.37 1.37 80
20260902145415 13 0 1.6 0.0 0.00 1.37 1.37 81
20260902144415 13 0 1.6 0.0 0.00 1.37 1.37 82
20260902143415 13 0 1.6 0.0 0.00 1.37 1.37 83
20260902142345 13 0 3.2 0.0 0.00 1.37 1.37 84
20260902141345 12 0 3.2 0.0 0.00 1.37 1.37 86
20260902140345 12 0 0.0 0.0 0.00 1.37 1.37 87
20260902135345 12 0 0.0 0.0 0.00 1.37 1.37 88
20260902134345 12 0 3.2 0.0 1.37 1.37 1.37 88
20260902133315 12 0 0.0 0.0 1.37 1.37 1.37 88
20260902132315 12 0 0.0 0.0 1.37 1.37 1.37 89
20260902131315 12 0 0.0 0.0 1.37 1.37 1.37 88
20260902130245 12 0 1.6 0.0 1.37 1.37 1.37 87
20260902125245 12 0 3.2 0.0 1.37 1.37 1.37 87
20260902124215 12 0 1.6 0.0 0.00 0.00 0.00 87
20260902123145 12 0 4.8 0.0 0.00 0.00 0.00 87
20260902122145 12 0 3.2 0.0 0.00 0.00 0.00 87
20260902121115 12 0 1.6 0.0 0.00 0.00 0.00 87
20260902120045 12 0 1.6 0.0 0.00 0.00 0.00 88
20260902115015 12 0 3.2 0.0 0.00 0.00 0.00 88
20260902113945 12 0 3.2 0.0 0.00 0.00 0.00 88
20260902112945 12 0 1.6 0.0 0.00 0.00 0.00 88
20260902111945 12 0 3.2 0.0 0.00 0.00 0.00 88
20260902110945 12 0 1.6 0.0 0.00 0.00 0.00 88
20260902105915 12 0 1.6 0.0 0.00 0.00 0.00 87
20260902104915 12 0 3.2 0.0 0.00 0.00 0.00 87
20260902103845 12 0 3.2 0.0 0.00 0.00 0.00 87
20260902102845 12 0 0.0 0.0 0.00 0.00 0.00 87
20260902101815 12 0 1.6 0.0 0.00 0.00 0.00 86
20260902100815 12 0 1.6 0.0 0.00 0.00 0.00 86
20260902095745 12 0 0.0 0.0 0.00 0.00 0.00 86
20260902094745 12 0 1.6 0.0 0.00 0.00 0.00 86
20260902093715 13 0 3.2 0.0 0.00 0.00 0.00 86
20260902092645 13 0 4.8 0.0 0.00 0.00 0.00 86
20260902091615 13 0 1.6 0.0 0.00 0.00 0.00 86
20260902090545 13 0 3.2 0.0 0.00 0.00 0.00 85
20260902085545 13 0 3.2 0.0 0.00 0.00 0.00 84
20260902084545 13 0 1.6 0.0 0.00 0.00 0.00 84
20260902083515 13 0 4.8 0.0 0.00 0.00 0.00 84
20260902082515 13 0 6.4 0.0 0.00 0.00 0.00 83
20260902081515 13 0 3.2 0.0 0.00 0.00 0.00 83
20260902080515 13 0 1.6 0.0 0.00 0.00 0.00 82
20260902075515 13 0 3.2 0.0 0.00 0.00 0.00 82
20260902074515 13 0 3.2 0.0 0.00 0.00 0.00 82
20260902073515 13 0 3.2 0.0 0.00 0.00 0.00 81
20260902072515 13 0 3.2 0.0 0.00 0.00 0.00 81
20260902071515 13 0 3.2 0.0 0.00 0.00 0.00 80
20260902070445 13 0 3.2 0.0 0.00 0.00 0.00 80
20260902065445 13 0 3.2 0.0 0.00 0.00 0.00 79
20260902064415 14 0 3.2 0.0 0.00 0.00 0.00 79
20260902063415 14 0 4.8 0.0 0.00 0.00 0.00 78
20260902062345 14 0 3.2 0.0 0.00 0.00 0.00 78
20260902061345 14 0 4.8 0.0 0.00 0.00 0.00 78
20260902060315 14 0 4.8 0.0 0.00 0.00 0.00 78
20260902055315 14 0 4.8 0.0 0.00 0.00 0.00 77
20260902054245 15 0 3.2 0.0 0.00 0.00 0.00 77
20260902053245 15 0 3.2 0.0 0.00 0.00 0.00 77
20260902052215 15 0 3.2 0.0 0.00 0.00 0.00 76
20260902051215 15 0 0.0 0.0 0.00 0.00 0.00 75
20260902050145 15 0 1.6 0.0 0.00 0.00 0.00 73
20260902045145 15 0 1.6 0.0 0.00 0.00 0.00 72
20260902044115 15 0 1.6 0.0 0.00 0.00 0.00 71
20260902043045 15 0 1.6 0.0 0.00 0.00 0.00 70
20260902042015 16 0 1.6 0.0 0.00 0.00 0.00 68
20260902041015 16 0 0.0 0.0 0.00 0.00 0.00 67
20260902035945 16 0 0.0 0.0 0.00 0.00 0.00 66
20260902034945 16 0 4.8 0.0 0.00 0.00 0.00 65
20260902033915 17 0 3.2 0.0 0.00 0.00 0.00 64
20260902032915 17 0 3.2 0.0 0.00 0.00 0.00 63
20260902031915 17 0 3.2 0.0 0.00 0.00 0.00 62
20260902030915 17 0 3.2 0.0 0.00 0.00 0.00 61
20260902025845 18 0 6.4 0.0 0.00 0.00 0.00 61
20260902024815 18 0 6.4 0.0 0.00 0.00 0.00 60
20260902023745 18 0 3.2 0.0 0.00 0.00 0.00 58